STARLINK-2225, 48574

Orbit data source: Space-Track

STARLINK-2225, 48574 is a payload satellite owned by SpaceX/Seattle (US) in LEO that was launched on Sat, 15 May 2021 UTC via an FALCON 9 launch vehicle from the Air Force Eastern Test Range (AFETR). Payload-class satellites include a variety of spacecraft equipped with specific instruments for various scientific and technological missions. These include communications satellites like Starlink; space stations such as the ISS; scientific satellites like the Hubble; Earth observation satellites from companies like Planet Labs, Umbra, and HawkEye 360; GPS; miniature CubeSats for education and research; and military/defense satellites.

Loading next visibility...
Identifier
48574, 2021-041X
Orbit
LEO
Country
Flag of USUS
Related business
Manufacturer
SpaceX/Seattle
Mission
Operational Commercial Communications
Bus & Motor
STARLINK, Unknown motor
Mass
260 kg wet, ~248 kg dry
Launch date (UTC)
2021-05-15 (5 years ago)
Launch vehicle
FALCON 9
Launch site
Air Force Eastern Test Range (AFETR)
Object type
Payload
Rocket body
Debris
Shape & HBR
Box + 1 Pan, 10.1 m
Radar Cross Section
13.562 m², Large (>1 m²)

Expand to show TLE details & history
Last TLE update: 1 day ago

TLE from 1 day ago
0 STARLINK-2225
1 48574U 21041X   25348.64684937  .00001076  00000-0  91156-4 0  9995
2 48574  53.0557 123.4742 0001301  93.5860 266.5278 15.06391530252800
Epoch: 2025-12-14T15:31Z
TLE epoch observation values (Epoch: 2025-12-14T15:31:27.785Z)
Latitude
-0.00001°
Longitude
167.05165°
Altitude
548.171 km
Speed
7.589 km/s
True Right ascension
08h 13m 53s
True Declination
0° 00' 00"
Sunlit
Object was in full shadow at epoch
Visualization orbit readout
Latitude
Unknown
Longitude
Unknown
Altitude
Unknown
Speed
Unknown
Apparent Right ascension
Unknown
Apparent Declination
Unknown
Sunlit
N/A
Visualization observer readout
Local Sidereal Time
15:07:27
Azimuth
Unknown
Elevation
Unknown
Doppler factor
Unknown
Orbital elements
Apogee altitude
548.409 km
Perigee altitude
546.607 km
Semi-major axis
6,925.645 km
Eccentricity
0.00013
Inclination
53.0557°
RAAN
123.4742°
Arg. of periapsis
93.586°
True anomaly
266.51292°
Mean anomaly
266.5278°
Eccentric anomaly
266.52036°
Mean motion
3.76576 °/min
Orbital period
95.6 mins
BSTAR
0.000091156
Loading maneuver chart data...
Computing Atmospheric mass density...
Loading historical data...
Loading historical data...
Loading historical data...
Loading historical data...
Loading historical data...
Loading historical data...
Loading historical data...

Documentation

Showing up to 5 results
|